Time,TemperatureF,DewpointF,PressureIn,WindDirection,WindDirectionDegrees,WindSpeedMPH,WindSpeedGustMPH,Humidity,HourlyPrecipIn,Conditions,Clouds,dailyrainin,SoftwareType,DateUTC
2013-01-13 00:02:00,3.5,-1.0,29.99,WNW,283,2.0,2.0,81,0.00,,,0.00,Wunderground v.1.15,2013-01-13 06:02:00,
2013-01-13 00:08:00,3.4,-1.1,29.98,West,264,2.0,3.0,81,0.00,,,0.00,Wunderground v.1.15,2013-01-13 06:08:00,
2013-01-13 00:13:00,3.4,-1.1,29.98,WNW,294,3.0,5.0,81,0.00,,,0.00,Wunderground v.1.15,2013-01-13 06:13:00,
2013-01-13 00:18:00,3.3,-1.2,29.98,WSW,257,2.0,5.0,81,0.00,,,0.00,Wunderground v.1.15,2013-01-13 06:18:00,
2013-01-13 00:23:00,3.3,-1.2,29.99,West,271,2.0,3.0,81,0.00,,,0.00,Wunderground v.1.15,2013-01-13 06:23:00,
2013-01-13 00:28:00,3.2,-1.3,29.99,West,277,2.0,4.0,81,0.00,,,0.00,Wunderground v.1.15,2013-01-13 06:28:00,
2013-01-13 00:34:00,3.1,-1.4,29.98,West,269,3.0,5.0,81,0.00,,,0.00,Wunderground v.1.15,2013-01-13 06:34:00,
2013-01-13 00:39:00,3.1,-1.4,29.98,WNW,291,3.0,5.0,81,0.00,,,0.00,Wunderground v.1.15,2013-01-13 06:39:00,
2013-01-13 00:44:00,3.0,-1.3,29.97,WNW,300,2.0,3.0,82,0.00,,,0.00,Wunderground v.1.15,2013-01-13 06:44:00,
2013-01-13 00:49:00,3.0,-1.3,29.97,NW,314,2.0,3.0,82,0.00,,,0.00,Wunderground v.1.15,2013-01-13 06:49:00,
2013-01-13 00:54:00,3.0,-1.5,29.97,WSW,255,1.0,3.0,81,0.00,,,0.00,Wunderground v.1.15,2013-01-13 06:54:00,
2013-01-13 00:59:00,2.9,-1.6,29.97,NW,307,2.0,5.0,81,0.00,,,0.00,Wunderground v.1.15,2013-01-13 06:59:00,
2013-01-13 01:05:00,2.9,-1.3,29.97,WNW,301,2.0,2.0,82,0.00,,,0.00,Wunderground v.1.15,2013-01-13 07:05:00,
2013-01-13 01:10:00,2.8,-1.4,29.98,WNW,293,1.0,1.0,82,0.00,,,0.00,Wunderground v.1.15,2013-01-13 07:10:00,
2013-01-13 01:15:00,2.8,-1.4,29.98,West,259,1.0,1.0,82,0.00,,,0.00,Wunderground v.1.15,2013-01-13 07:15:00,
2013-01-13 01:20:00,2.7,-1.5,29.98,West,280,1.0,1.0,82,0.00,,,0.00,Wunderground v.1.15,2013-01-13 07:20:00,
2013-01-13 01:25:00,2.7,-1.5,29.98,West,277,1.0,2.0,82,0.00,,,0.00,Wunderground v.1.15,2013-01-13 07:25:00,
2013-01-13 01:31:00,2.6,-1.6,29.98,West,280,1.0,3.0,82,0.00,,,0.00,Wunderground v.1.15,2013-01-13 07:31:00,
2013-01-13 01:36:00,2.6,-1.6,29.98,West,266,1.0,3.0,82,0.00,,,0.00,Wunderground v.1.15,2013-01-13 07:36:00,
2013-01-13 01:41:00,2.6,-1.6,29.98,West,263,1.0,2.0,82,0.00,,,0.00,Wunderground v.1.15,2013-01-13 07:41:00,
2013-01-13 01:46:00,2.6,-1.6,29.98,WNW,300,1.0,2.0,82,0.00,,,0.00,Wunderground v.1.15,2013-01-13 07:46:00,
2013-01-13 01:51:00,2.6,-1.6,29.99,NW,305,1.0,1.0,82,0.00,,,0.00,Wunderground v.1.15,2013-01-13 07:51:00,
2013-01-13 01:57:00,2.5,-1.7,29.99,WNW,297,0.0,1.0,82,0.00,,,0.00,Wunderground v.1.15,2013-01-13 07:57:00,
2013-01-13 02:02:00,2.5,-1.7,29.98,NW,307,0.0,1.0,82,0.00,,,0.00,Wunderground v.1.15,2013-01-13 08:02:00,
2013-01-13 02:07:00,2.4,-1.8,29.98,WNW,289,0.0,1.0,82,0.00,,,0.00,Wunderground v.1.15,2013-01-13 08:07:00,
2013-01-13 02:12:00,2.4,-1.8,29.98,NW,309,1.0,3.0,82,0.00,,,0.00,Wunderground v.1.15,2013-01-13 08:12:00,
2013-01-13 02:17:00,2.5,-1.7,29.98,NNW,327,1.0,3.0,82,0.00,,,0.00,Wunderground v.1.15,2013-01-13 08:17:00,
2013-01-13 02:23:00,2.4,-1.8,29.98,West,274,0.0,1.0,82,0.00,,,0.00,Wunderground v.1.15,2013-01-13 08:23:00,
2013-01-13 02:28:00,2.4,-1.8,29.98,NW,305,1.0,2.0,82,0.00,,,0.00,Wunderground v.1.15,2013-01-13 08:28:00,
2013-01-13 02:33:00,2.3,-1.9,29.98,NW,318,1.0,1.0,82,0.00,,,0.00,Wunderground v.1.15,2013-01-13 08:33:00,
2013-01-13 02:38:00,2.2,-2.0,29.98,NW,308,1.0,2.0,82,0.00,,,0.00,Wunderground v.1.15,2013-01-13 08:38:00,
2013-01-13 02:43:00,2.2,-2.3,29.99,WNW,302,1.0,1.0,81,0.00,,,0.00,Wunderground v.1.15,2013-01-13 08:43:00,
2013-01-13 02:48:00,2.2,-2.0,29.99,NW,309,1.0,3.0,82,0.00,,,0.00,Wunderground v.1.15,2013-01-13 08:48:00,
2013-01-13 02:53:00,2.1,-2.1,29.99,NW,312,1.0,1.0,82,0.00,,,0.00,Wunderground v.1.15,2013-01-13 08:53:00,
2013-01-13 02:58:00,2.1,-2.1,29.99,WNW,283,0.0,1.0,82,0.00,,,0.00,Wunderground v.1.15,2013-01-13 08:58:00,
2013-01-13 03:03:00,2.0,-2.2,29.99,NW,308,0.0,1.0,82,0.00,,,0.00,Wunderground v.1.15,2013-01-13 09:03:00,
2013-01-13 03:09:00,2.0,-2.2,29.99,WNW,285,0.0,1.0,82,0.00,,,0.00,Wunderground v.1.15,2013-01-13 09:09:00,
2013-01-13 03:14:00,2.0,-2.0,29.99,West,275,1.0,1.0,83,0.00,,,0.00,Wunderground v.1.15,2013-01-13 09:14:00,
2013-01-13 03:19:00,2.0,-2.0,29.99,West,270,1.0,2.0,83,0.00,,,0.00,Wunderground v.1.15,2013-01-13 09:19:00,
2013-01-13 03:24:00,1.9,-2.1,29.98,WNW,297,1.0,3.0,83,0.00,,,0.00,Wunderground v.1.15,2013-01-13 09:24:00,
2013-01-13 03:29:00,1.9,-2.1,29.98,NW,309,1.0,1.0,83,0.00,,,0.00,Wunderground v.1.15,2013-01-13 09:29:00,
2013-01-13 03:34:00,1.9,-2.1,29.98,West,275,0.0,1.0,83,0.00,,,0.00,Wunderground v.1.15,2013-01-13 09:34:00,
2013-01-13 03:40:00,1.8,-2.2,29.98,West,262,0.0,1.0,83,0.00,,,0.00,Wunderground v.1.15,2013-01-13 09:40:00,
2013-01-13 03:45:00,1.7,-2.3,29.98,West,281,1.0,2.0,83,0.00,,,0.00,Wunderground v.1.15,2013-01-13 09:45:00,
2013-01-13 03:50:00,1.7,-2.3,29.99,West,273,1.0,1.0,83,0.00,,,0.00,Wunderground v.1.15,2013-01-13 09:50:00,
2013-01-13 03:55:00,1.7,-2.3,29.99,NW,319,1.0,2.0,83,0.00,,,0.00,Wunderground v.1.15,2013-01-13 09:55:00,
2013-01-13 04:00:00,1.6,-2.4,29.99,West,273,1.0,2.0,83,0.00,,,0.00,Wunderground v.1.15,2013-01-13 10:00:00,
2013-01-13 04:06:00,1.6,-2.4,29.99,WNW,286,1.0,4.0,83,0.00,,,0.00,Wunderground v.1.15,2013-01-13 10:06:00,
2013-01-13 04:11:00,1.6,-2.4,29.99,West,280,1.0,3.0,83,0.00,,,0.00,Wunderground v.1.15,2013-01-13 10:11:00,
2013-01-13 04:16:00,1.6,-2.4,29.99,NW,309,1.0,3.0,83,0.00,,,0.00,Wunderground v.1.15,2013-01-13 10:16:00,
2013-01-13 04:21:00,1.6,-2.4,29.99,WNW,296,1.0,1.0,83,0.00,,,0.00,Wunderground v.1.15,2013-01-13 10:21:00,
2013-01-13 04:26:00,1.6,-2.4,29.99,NW,314,1.0,1.0,83,0.00,,,0.00,Wunderground v.1.15,2013-01-13 10:26:00,
2013-01-13 04:32:00,1.5,-2.2,29.99,NW,318,1.0,2.0,84,0.00,,,0.00,Wunderground v.1.15,2013-01-13 10:32:00,
2013-01-13 04:37:00,1.5,-2.5,29.99,West,269,1.0,2.0,83,0.00,,,0.00,Wunderground v.1.15,2013-01-13 10:37:00,
2013-01-13 04:42:00,1.5,-2.2,29.98,WNW,283,2.0,2.0,84,0.00,,,0.00,Wunderground v.1.15,2013-01-13 10:42:00,
2013-01-13 04:47:00,1.4,-2.3,29.98,WNW,288,1.0,2.0,84,0.00,,,0.00,Wunderground v.1.15,2013-01-13 10:47:00,
2013-01-13 04:52:00,1.4,-2.3,29.98,West,262,0.0,2.0,84,0.00,,,0.00,Wunderground v.1.15,2013-01-13 10:52:00,
2013-01-13 04:57:00,1.3,-2.4,29.99,NW,314,1.0,2.0,84,0.00,,,0.00,Wunderground v.1.15,2013-01-13 10:57:00,
2013-01-13 05:03:00,1.3,-2.4,29.99,NW,305,1.0,2.0,84,0.00,,,0.00,Wunderground v.1.15,2013-01-13 11:03:00,
2013-01-13 05:08:00,1.3,-2.4,29.99,NW,321,1.0,2.0,84,0.00,,,0.00,Wunderground v.1.15,2013-01-13 11:08:00,
2013-01-13 05:13:00,1.3,-2.4,29.99,WNW,301,1.0,3.0,84,0.00,,,0.00,Wunderground v.1.15,2013-01-13 11:13:00,
2013-01-13 05:18:00,1.3,-2.4,29.99,NW,312,1.0,3.0,84,0.00,,,0.00,Wunderground v.1.15,2013-01-13 11:18:00,
2013-01-13 05:23:00,1.3,-2.4,29.99,NW,310,1.0,1.0,84,0.00,,,0.00,Wunderground v.1.15,2013-01-13 11:23:00,
2013-01-13 05:29:00,1.3,-2.4,30.00,West,277,0.0,1.0,84,0.00,,,0.00,Wunderground v.1.15,2013-01-13 11:29:00,
2013-01-13 05:34:00,1.3,-2.4,30.00,WNW,288,1.0,3.0,84,0.00,,,0.00,Wunderground v.1.15,2013-01-13 11:34:00,
2013-01-13 05:39:00,1.3,-2.4,30.00,West,269,1.0,3.0,84,0.00,,,0.00,Wunderground v.1.15,2013-01-13 11:39:00,
2013-01-13 05:44:00,1.3,-2.2,30.00,West,271,1.0,1.0,85,0.00,,,0.00,Wunderground v.1.15,2013-01-13 11:44:00,
2013-01-13 05:49:00,1.4,-2.3,30.01,NW,314,1.0,4.0,84,0.00,,,0.00,Wunderground v.1.15,2013-01-13 11:49:00,
2013-01-13 05:55:00,1.4,-2.3,30.01,West,264,1.0,2.0,84,0.00,,,0.00,Wunderground v.1.15,2013-01-13 11:55:00,
2013-01-13 06:00:00,1.5,-2.2,30.01,NW,316,1.0,1.0,84,0.00,,,0.00,Wunderground v.1.15,2013-01-13 12:00:00,
2013-01-13 06:05:00,1.6,-2.1,30.01,NW,319,0.0,2.0,84,0.00,,,0.00,Wunderground v.1.15,2013-01-13 12:05:00,
2013-01-13 06:10:00,1.7,-2.0,30.01,WNW,302,1.0,1.0,84,0.00,,,0.00,Wunderground v.1.15,2013-01-13 12:10:00,
2013-01-13 06:15:00,1.7,-2.0,30.02,NW,314,1.0,2.0,84,0.00,,,0.00,Wunderground v.1.15,2013-01-13 12:15:00,
2013-01-13 06:20:00,1.8,-1.9,30.02,WNW,293,1.0,3.0,84,0.00,,,0.00,Wunderground v.1.15,2013-01-13 12:20:00,
2013-01-13 06:25:00,1.8,-1.9,30.02,WNW,293,1.0,3.0,84,0.00,,,0.00,Wunderground v.1.15,2013-01-13 12:25:00,
2013-01-13 06:30:00,1.9,-1.8,30.03,NW,314,1.0,1.0,84,0.00,,,0.00,Wunderground v.1.15,2013-01-13 12:30:00,
2013-01-13 06:35:00,1.8,-1.9,30.03,WNW,291,1.0,3.0,84,0.00,,,0.00,Wunderground v.1.15,2013-01-13 12:35:00,
2013-01-13 06:40:00,1.8,-2.2,30.03,NW,314,1.0,2.0,83,0.00,,,0.00,Wunderground v.1.15,2013-01-13 12:40:00,
2013-01-13 06:46:00,1.9,-1.8,30.04,West,271,1.0,2.0,84,0.00,,,0.00,Wunderground v.1.15,2013-01-13 12:46:00,
2013-01-13 06:51:00,1.9,-1.8,30.04,West,281,1.0,2.0,84,0.00,,,0.00,Wunderground v.1.15,2013-01-13 12:51:00,
2013-01-13 06:56:00,1.9,-1.8,30.04,West,271,2.0,3.0,84,0.00,,,0.00,Wunderground v.1.15,2013-01-13 12:56:00,
2013-01-13 07:01:00,2.0,-1.7,30.05,West,264,1.0,1.0,84,0.00,,,0.00,Wunderground v.1.15,2013-01-13 13:01:00,
2013-01-13 07:06:00,2.1,-1.6,30.05,NW,318,1.0,2.0,84,0.00,,,0.00,Wunderground v.1.15,2013-01-13 13:06:00,
2013-01-13 07:12:00,2.1,-1.9,30.05,West,271,2.0,4.0,83,0.00,,,0.00,Wunderground v.1.15,2013-01-13 13:12:00,
2013-01-13 07:17:00,2.1,-1.6,30.05,WNW,293,2.0,4.0,84,0.00,,,0.00,Wunderground v.1.15,2013-01-13 13:17:00,
2013-01-13 07:22:00,2.0,-1.7,30.05,West,260,1.0,2.0,84,0.00,,,0.00,Wunderground v.1.15,2013-01-13 13:22:00,
2013-01-13 07:27:00,2.0,-1.7,30.05,WNW,296,1.0,2.0,84,0.00,,,0.00,Wunderground v.1.15,2013-01-13 13:27:00,
2013-01-13 07:32:00,1.9,-1.8,30.05,West,280,1.0,3.0,84,0.00,,,0.00,Wunderground v.1.15,2013-01-13 13:32:00,
2013-01-13 07:38:00,1.9,-2.1,30.06,WNW,293,1.0,3.0,83,0.00,,,0.00,Wunderground v.1.15,2013-01-13 13:38:00,
2013-01-13 07:43:00,1.9,-1.8,30.06,NW,312,1.0,3.0,84,0.00,,,0.00,Wunderground v.1.15,2013-01-13 13:43:00,
2013-01-13 07:48:00,1.9,-1.8,30.05,WNW,288,1.0,3.0,84,0.00,,,0.00,Wunderground v.1.15,2013-01-13 13:48:00,
2013-01-13 07:53:00,1.8,-2.2,30.06,West,268,1.0,1.0,83,0.00,,,0.00,Wunderground v.1.15,2013-01-13 13:53:00,
2013-01-13 07:58:00,1.8,-2.2,30.06,WNW,297,0.0,1.0,83,0.00,,,0.00,Wunderground v.1.15,2013-01-13 13:58:00,
2013-01-13 08:04:00,1.7,-2.3,30.07,West,271,1.0,2.0,83,0.00,,,0.00,Wunderground v.1.15,2013-01-13 14:04:00,
2013-01-13 08:09:00,1.7,-2.0,30.07,West,269,1.0,2.0,84,0.00,,,0.00,Wunderground v.1.15,2013-01-13 14:09:00,
2013-01-13 08:14:00,1.7,-2.3,30.07,NW,326,0.0,2.0,83,0.00,,,0.00,Wunderground v.1.15,2013-01-13 14:14:00,
2013-01-13 08:19:00,1.6,-2.4,30.07,WNW,293,0.0,2.0,83,0.00,,,0.00,Wunderground v.1.15,2013-01-13 14:19:00,
2013-01-13 08:24:00,1.5,-2.5,30.07,NW,309,1.0,2.0,83,0.00,,,0.00,Wunderground v.1.15,2013-01-13 14:24:00,
2013-01-13 08:29:00,1.5,-2.5,30.07,NW,314,1.0,2.0,83,0.00,,,0.00,Wunderground v.1.15,2013-01-13 14:29:00,
2013-01-13 08:35:00,1.5,-2.2,30.08,WSW,249,1.0,3.0,84,0.00,,,0.00,Wunderground v.1.15,2013-01-13 14:35:00,
2013-01-13 08:40:00,1.4,-2.3,30.08,West,280,2.0,2.0,84,0.00,,,0.00,Wunderground v.1.15,2013-01-13 14:40:00,
2013-01-13 08:45:00,1.5,-2.2,30.08,West,270,2.0,2.0,84,0.00,,,0.00,Wunderground v.1.15,2013-01-13 14:45:00,
2013-01-13 08:50:00,1.7,-2.0,30.08,NW,321,1.0,1.0,84,0.00,,,0.00,Wunderground v.1.15,2013-01-13 14:50:00,
2013-01-13 08:55:00,1.8,-1.9,30.08,West,273,1.0,2.0,84,0.00,,,0.00,Wunderground v.1.15,2013-01-13 14:55:00,
2013-01-13 09:00:00,2.1,-1.6,30.09,West,264,1.0,1.0,84,0.00,,,0.00,Wunderground v.1.15,2013-01-13 15:00:00,
2013-01-13 09:05:00,2.4,-1.3,30.09,WNW,300,1.0,2.0,84,0.00,,,0.00,Wunderground v.1.15,2013-01-13 15:05:00,
2013-01-13 09:10:00,2.6,-1.4,30.09,West,273,1.0,2.0,83,0.00,,,0.00,Wunderground v.1.15,2013-01-13 15:10:00,
2013-01-13 09:15:00,2.6,-1.6,30.10,NW,305,1.0,2.0,82,0.00,,,0.00,Wunderground v.1.15,2013-01-13 15:15:00,
2013-01-13 09:20:00,2.6,-1.6,30.10,NW,314,1.0,1.0,82,0.00,,,0.00,Wunderground v.1.15,2013-01-13 15:20:00,
2013-01-13 09:25:00,2.7,-1.3,30.10,West,278,2.0,3.0,83,0.00,,,0.00,Wunderground v.1.15,2013-01-13 15:25:00,
2013-01-13 09:31:00,2.6,-1.6,30.10,West,266,3.0,4.0,82,0.00,,,0.00,Wunderground v.1.15,2013-01-13 15:31:00,
2013-01-13 09:36:00,2.7,-1.3,30.09,NW,326,3.0,4.0,83,0.00,,,0.00,Wunderground v.1.15,2013-01-13 15:36:00,
2013-01-13 09:41:00,2.7,-1.5,30.09,WSW,245,2.0,6.0,82,0.00,,,0.00,Wunderground v.1.15,2013-01-13 15:41:00,
2013-01-13 09:46:00,2.7,-1.3,30.09,NW,326,3.0,6.0,83,0.00,,,0.00,Wunderground v.1.15,2013-01-13 15:46:00,
2013-01-13 09:51:00,2.8,-1.2,30.10,West,266,3.0,3.0,83,0.00,,,0.00,Wunderground v.1.15,2013-01-13 15:51:00,
2013-01-13 09:57:00,3.0,-1.0,30.09,NW,316,2.0,3.0,83,0.00,,,0.00,Wunderground v.1.15,2013-01-13 15:57:00,
2013-01-13 10:02:00,3.0,-1.0,30.09,WNW,284,2.0,4.0,83,0.00,,,0.00,Wunderground v.1.15,2013-01-13 16:02:00,
2013-01-13 10:07:00,3.2,-0.5,30.08,NNW,327,2.0,4.0,84,0.00,,,0.00,Wunderground v.1.15,2013-01-13 16:07:00,
2013-01-13 10:12:00,3.5,-0.5,30.08,NW,314,1.0,2.0,83,0.00,,,0.00,Wunderground v.1.15,2013-01-13 16:12:00,
2013-01-13 10:17:00,3.5,-0.5,30.08,WSW,257,2.0,3.0,83,0.00,,,0.00,Wunderground v.1.15,2013-01-13 16:17:00,
2013-01-13 10:23:00,3.5,-0.5,30.08,West,271,3.0,5.0,83,0.00,,,0.00,Wunderground v.1.15,2013-01-13 16:23:00,
2013-01-13 10:28:00,3.5,-0.8,30.07,WSW,255,3.0,5.0,82,0.00,,,0.00,Wunderground v.1.15,2013-01-13 16:28:00,
2013-01-13 10:33:00,3.5,-0.5,30.07,WNW,295,4.0,6.0,83,0.00,,,0.00,Wunderground v.1.15,2013-01-13 16:33:00,
2013-01-13 10:38:00,3.7,-0.3,30.07,West,268,4.0,6.0,83,0.00,,,0.00,Wunderground v.1.15,2013-01-13 16:38:00,
2013-01-13 10:43:00,4.0,0.0,30.07,NW,305,3.0,3.0,83,0.00,,,0.00,Wunderground v.1.15,2013-01-13 16:43:00,
2013-01-13 10:49:00,4.1,0.1,30.06,West,278,2.0,3.0,83,0.00,,,0.00,Wunderground v.1.15,2013-01-13 16:49:00,
2013-01-13 10:54:00,4.2,-0.1,30.06,West,278,2.0,5.0,82,0.00,,,0.00,Wunderground v.1.15,2013-01-13 16:54:00,
2013-01-13 10:59:00,4.4,0.6,30.06,NW,309,2.0,5.0,84,0.00,,,0.00,Wunderground v.1.15,2013-01-13 16:59:00,
2013-01-13 11:04:00,4.6,0.3,30.06,West,266,2.0,6.0,82,0.00,,,0.00,Wunderground v.1.15,2013-01-13 17:04:00,
2013-01-13 11:09:00,4.6,0.3,30.05,NW,326,3.0,6.0,82,0.00,,,0.00,Wunderground v.1.15,2013-01-13 17:09:00,
2013-01-13 11:15:00,5.1,1.1,30.05,West,273,2.0,3.0,83,0.00,,,0.00,Wunderground v.1.15,2013-01-13 17:15:00,
2013-01-13 11:20:00,4.9,0.3,30.05,West,281,3.0,7.0,81,0.00,,,0.00,Wunderground v.1.15,2013-01-13 17:20:00,
2013-01-13 11:25:00,4.9,0.6,30.05,West,271,4.0,7.0,82,0.00,,,0.00,Wunderground v.1.15,2013-01-13 17:25:00,
2013-01-13 11:30:00,5.2,0.9,30.04,WNW,302,3.0,3.0,82,0.00,,,0.00,Wunderground v.1.15,2013-01-13 17:30:00,
2013-01-13 11:35:00,5.5,1.2,30.04,West,266,2.0,4.0,82,0.00,,,0.00,Wunderground v.1.15,2013-01-13 17:35:00,
2013-01-13 11:41:00,6.0,1.7,30.04,West,263,3.0,6.0,82,0.00,,,0.00,Wunderground v.1.15,2013-01-13 17:41:00,
2013-01-13 11:46:00,6.0,1.4,30.04,West,260,4.0,6.0,81,0.00,,,0.00,Wunderground v.1.15,2013-01-13 17:46:00,
2013-01-13 11:51:00,6.1,1.3,30.03,West,262,5.0,5.0,80,0.00,,,0.00,Wunderground v.1.15,2013-01-13 17:51:00,
2013-01-13 11:56:00,6.4,1.5,30.03,West,271,5.0,9.0,80,0.00,,,0.00,Wunderground v.1.15,2013-01-13 17:56:00,
2013-01-13 12:01:00,6.5,1.6,30.03,NNW,331,5.0,5.0,80,0.00,,,0.00,Wunderground v.1.15,2013-01-13 18:01:00,
2013-01-13 12:07:00,6.8,2.2,30.03,NW,321,4.0,5.0,81,0.00,,,0.00,Wunderground v.1.15,2013-01-13 18:07:00,
2013-01-13 12:12:00,6.8,1.9,30.03,WNW,287,3.0,7.0,80,0.00,,,0.00,Wunderground v.1.15,2013-01-13 18:12:00,
2013-01-13 12:17:00,6.7,1.8,30.03,WNW,296,3.0,7.0,80,0.00,,,0.00,Wunderground v.1.15,2013-01-13 18:17:00,
2013-01-13 12:22:00,7.2,2.6,30.03,West,262,4.0,4.0,81,0.00,,,0.00,Wunderground v.1.15,2013-01-13 18:22:00,
2013-01-13 12:27:00,7.0,2.1,30.03,WSW,249,3.0,5.0,80,0.00,,,0.00,Wunderground v.1.15,2013-01-13 18:27:00,
2013-01-13 12:33:00,7.0,2.4,30.03,WNW,302,4.0,4.0,81,0.00,,,0.00,Wunderground v.1.15,2013-01-13 18:33:00,
2013-01-13 12:38:00,7.0,1.9,30.03,WNW,288,3.0,5.0,79,0.00,,,0.00,Wunderground v.1.15,2013-01-13 18:38:00,
2013-01-13 12:43:00,6.7,1.8,30.03,WNW,284,3.0,4.0,80,0.00,,,0.00,Wunderground v.1.15,2013-01-13 18:43:00,
2013-01-13 12:48:00,6.7,1.8,30.03,WNW,284,3.0,5.0,80,0.00,,,0.00,Wunderground v.1.15,2013-01-13 18:48:00,
2013-01-13 12:53:00,7.2,2.6,30.03,WSW,252,3.0,8.0,81,0.00,,,0.00,Wunderground v.1.15,2013-01-13 18:53:00,
2013-01-13 12:59:00,7.3,2.2,30.03,West,270,4.0,10.0,79,0.00,,,0.00,Wunderground v.1.15,2013-01-13 18:59:00,
2013-01-13 13:04:00,6.9,1.5,30.03,West,260,5.0,10.0,78,0.00,,,0.00,Wunderground v.1.15,2013-01-13 19:04:00,
2013-01-13 13:09:00,6.9,1.8,30.03,West,280,6.0,10.0,79,0.00,,,0.00,Wunderground v.1.15,2013-01-13 19:09:00,
2013-01-13 13:14:00,7.0,2.1,30.03,West,259,4.0,7.0,80,0.00,,,0.00,Wunderground v.1.15,2013-01-13 19:14:00,
2013-01-13 13:19:00,7.3,2.4,30.03,SW,231,4.0,7.0,80,0.00,,,0.00,Wunderground v.1.15,2013-01-13 19:19:00,
2013-01-13 13:24:00,7.6,2.4,30.04,WNW,285,4.0,5.0,79,0.00,,,0.00,Wunderground v.1.15,2013-01-13 19:24:00,
2013-01-13 13:29:00,7.9,3.0,30.04,West,267,4.0,6.0,80,0.00,,,0.00,Wunderground v.1.15,2013-01-13 19:29:00,
2013-01-13 13:34:00,7.7,2.5,30.03,West,280,5.0,7.0,79,0.00,,,0.00,Wunderground v.1.15,2013-01-13 19:34:00,
2013-01-13 13:39:00,7.8,3.2,30.04,West,259,5.0,7.0,81,0.00,,,0.00,Wunderground v.1.15,2013-01-13 19:39:00,
2013-01-13 13:44:00,8.1,3.2,30.04,WSW,242,4.0,6.0,80,0.00,,,0.00,Wunderground v.1.15,2013-01-13 19:44:00,
2013-01-13 13:49:00,8.1,2.9,30.04,West,270,4.0,7.0,79,0.00,,,0.00,Wunderground v.1.15,2013-01-13 19:49:00,
2013-01-13 13:55:00,8.1,2.7,30.04,WNW,295,5.0,5.0,78,0.00,,,0.00,Wunderground v.1.15,2013-01-13 19:55:00,
2013-01-13 14:00:00,8.7,3.5,30.05,West,277,5.0,5.0,79,0.00,,,0.00,Wunderground v.1.15,2013-01-13 20:00:00,
2013-01-13 14:05:00,8.7,3.0,30.04,West,263,5.0,7.0,77,0.00,,,0.00,Wunderground v.1.15,2013-01-13 20:05:00,
2013-01-13 14:10:00,8.7,2.7,30.05,West,280,5.0,5.0,76,0.00,,,0.00,Wunderground v.1.15,2013-01-13 20:10:00,
2013-01-13 14:15:00,8.6,2.9,30.05,West,273,5.0,5.0,77,0.00,,,0.00,Wunderground v.1.15,2013-01-13 20:15:00,
2013-01-13 14:21:00,8.8,2.8,30.05,WSW,255,4.0,5.0,76,0.00,,,0.00,Wunderground v.1.15,2013-01-13 20:21:00,
2013-01-13 14:26:00,8.8,3.3,30.06,West,263,3.0,7.0,78,0.00,,,0.00,Wunderground v.1.15,2013-01-13 20:26:00,
2013-01-13 14:31:00,8.8,3.1,30.06,SW,234,4.0,7.0,77,0.00,,,0.00,Wunderground v.1.15,2013-01-13 20:31:00,
2013-01-13 14:36:00,8.7,2.7,30.06,WSW,248,5.0,9.0,76,0.00,,,0.00,Wunderground v.1.15,2013-01-13 20:36:00,
2013-01-13 14:41:00,8.2,2.2,30.06,West,281,6.0,11.0,76,0.00,,,0.00,Wunderground v.1.15,2013-01-13 20:41:00,
2013-01-13 14:47:00,8.0,2.0,30.06,WSW,239,6.0,11.0,76,0.00,,,0.00,Wunderground v.1.15,2013-01-13 20:47:00,
2013-01-13 14:52:00,8.1,2.4,30.06,West,269,6.0,6.0,77,0.00,,,0.00,Wunderground v.1.15,2013-01-13 20:52:00,
2013-01-13 14:57:00,8.3,2.3,30.06,West,280,5.0,6.0,76,0.00,,,0.00,Wunderground v.1.15,2013-01-13 20:57:00,
2013-01-13 15:02:00,8.4,2.4,30.06,West,271,5.0,7.0,76,0.00,,,0.00,Wunderground v.1.15,2013-01-13 21:02:00,
2013-01-13 15:07:00,8.4,2.4,30.07,West,281,4.0,7.0,76,0.00,,,0.00,Wunderground v.1.15,2013-01-13 21:07:00,
2013-01-13 15:13:00,8.3,2.6,30.07,West,269,4.0,5.0,77,0.00,,,0.00,Wunderground v.1.15,2013-01-13 21:13:00,
2013-01-13 15:18:00,8.2,2.5,30.07,West,266,4.0,10.0,77,0.00,,,0.00,Wunderground v.1.15,2013-01-13 21:18:00,
2013-01-13 15:23:00,8.1,2.4,30.07,West,261,5.0,6.0,77,0.00,,,0.00,Wunderground v.1.15,2013-01-13 21:23:00,
2013-01-13 15:28:00,8.0,2.3,30.07,WNW,285,4.0,6.0,77,0.00,,,0.00,Wunderground v.1.15,2013-01-13 21:28:00,
2013-01-13 15:33:00,7.8,2.1,30.08,West,267,5.0,12.0,77,0.00,,,0.00,Wunderground v.1.15,2013-01-13 21:33:00,
2013-01-13 15:39:00,7.9,2.5,30.08,WNW,298,5.0,12.0,78,0.00,,,0.00,Wunderground v.1.15,2013-01-13 21:39:00,
2013-01-13 15:44:00,8.1,2.9,30.08,NW,305,3.0,4.0,79,0.00,,,0.00,Wunderground v.1.15,2013-01-13 21:44:00,
2013-01-13 15:49:00,8.1,2.7,30.08,West,269,3.0,6.0,78,0.00,,,0.00,Wunderground v.1.15,2013-01-13 21:49:00,
2013-01-13 15:54:00,8.1,2.9,30.08,West,276,4.0,4.0,79,0.00,,,0.00,Wunderground v.1.15,2013-01-13 21:54:00,
2013-01-13 15:59:00,8.0,2.6,30.08,West,261,5.0,8.0,78,0.00,,,0.00,Wunderground v.1.15,2013-01-13 21:59:00,
2013-01-13 16:05:00,7.9,2.7,30.08,WSW,248,6.0,7.0,79,0.00,,,0.00,Wunderground v.1.15,2013-01-13 22:05:00,
2013-01-13 16:10:00,7.8,2.6,30.08,West,267,6.0,6.0,79,0.00,,,0.00,Wunderground v.1.15,2013-01-13 22:10:00,
2013-01-13 16:15:00,7.9,3.0,30.09,WNW,285,5.0,6.0,80,0.00,,,0.00,Wunderground v.1.15,2013-01-13 22:15:00,
2013-01-13 16:20:00,7.8,2.9,30.09,SW,224,4.0,4.0,80,0.00,,,0.00,Wunderground v.1.15,2013-01-13 22:20:00,
2013-01-13 16:25:00,7.8,2.9,30.09,WSW,257,4.0,5.0,80,0.00,,,0.00,Wunderground v.1.15,2013-01-13 22:25:00,
2013-01-13 16:31:00,7.8,2.6,30.09,WSW,255,4.0,4.0,79,0.00,,,0.00,Wunderground v.1.15,2013-01-13 22:31:00,
2013-01-13 16:36:00,7.8,2.9,30.09,WNW,288,4.0,5.0,80,0.00,,,0.00,Wunderground v.1.15,2013-01-13 22:36:00,
2013-01-13 16:41:00,7.7,2.8,30.09,West,266,3.0,5.0,80,0.00,,,0.00,Wunderground v.1.15,2013-01-13 22:41:00,
2013-01-13 16:46:00,7.6,2.7,30.09,WNW,285,4.0,5.0,80,0.00,,,0.00,Wunderground v.1.15,2013-01-13 22:46:00,
2013-01-13 16:51:00,7.4,2.5,30.10,West,277,4.0,7.0,80,0.00,,,0.00,Wunderground v.1.15,2013-01-13 22:51:00,
2013-01-13 16:57:00,7.2,2.3,30.10,WSW,257,5.0,7.0,80,0.00,,,0.00,Wunderground v.1.15,2013-01-13 22:57:00,
2013-01-13 17:02:00,7.1,2.5,30.10,West,278,5.0,6.0,81,0.00,,,0.00,Wunderground v.1.15,2013-01-13 23:02:00,
2013-01-13 17:07:00,6.9,2.3,30.10,West,270,5.0,10.0,81,0.00,,,0.00,Wunderground v.1.15,2013-01-13 23:07:00,
2013-01-13 17:12:00,6.8,2.2,30.10,WSW,257,5.0,5.0,81,0.00,,,0.00,Wunderground v.1.15,2013-01-13 23:12:00,
2013-01-13 17:17:00,6.6,2.3,30.10,West,274,4.0,6.0,82,0.00,,,0.00,Wunderground v.1.15,2013-01-13 23:17:00,
2013-01-13 17:22:00,6.4,2.1,30.11,West,266,4.0,4.0,82,0.00,,,0.00,Wunderground v.1.15,2013-01-13 23:22:00,
2013-01-13 17:27:00,6.0,1.7,30.11,West,263,5.0,6.0,82,0.00,,,0.00,Wunderground v.1.15,2013-01-13 23:27:00,
2013-01-13 17:32:00,5.7,1.4,30.11,West,260,6.0,7.0,82,0.00,,,0.00,Wunderground v.1.15,2013-01-13 23:32:00,
2013-01-13 17:37:00,5.5,1.2,30.11,West,275,5.0,7.0,82,0.00,,,0.00,Wunderground v.1.15,2013-01-13 23:37:00,
2013-01-13 17:42:00,5.4,1.1,30.11,WSW,257,5.0,7.0,82,0.00,,,0.00,Wunderground v.1.15,2013-01-13 23:42:00,
2013-01-13 17:47:00,5.2,0.9,30.11,West,278,5.0,7.0,82,0.00,,,0.00,Wunderground v.1.15,2013-01-13 23:47:00,
2013-01-13 17:53:00,5.1,0.8,30.11,West,264,4.0,5.0,82,0.00,,,0.00,Wunderground v.1.15,2013-01-13 23:53:00,
2013-01-13 17:58:00,5.1,0.8,30.12,WSW,253,4.0,10.0,82,0.00,,,0.00,Wunderground v.1.15,2013-01-13 23:58:00,
2013-01-13 18:03:00,5.0,0.7,30.12,WNW,287,5.0,7.0,82,0.00,,,0.00,Wunderground v.1.15,2013-01-14 00:03:00,
2013-01-13 18:08:00,4.8,0.5,30.12,WSW,255,4.0,10.0,82,0.00,,,0.00,Wunderground v.1.15,2013-01-14 00:08:00,
2013-01-13 18:13:00,4.7,0.4,30.12,West,269,5.0,6.0,82,0.00,,,0.00,Wunderground v.1.15,2013-01-14 00:13:00,
2013-01-13 18:19:00,4.6,0.3,30.13,WSW,248,6.0,8.0,82,0.00,,,0.00,Wunderground v.1.15,2013-01-14 00:19:00,
2013-01-13 18:24:00,4.5,0.5,30.13,West,264,4.0,6.0,83,0.00,,,0.00,Wunderground v.1.15,2013-01-14 00:24:00,
2013-01-13 18:29:00,4.4,0.4,30.13,WNW,283,5.0,8.0,83,0.00,,,0.00,Wunderground v.1.15,2013-01-14 00:29:00,
2013-01-13 18:34:00,4.3,0.3,30.13,West,263,6.0,11.0,83,0.00,,,0.00,Wunderground v.1.15,2013-01-14 00:34:00,
2013-01-13 18:39:00,4.3,0.3,30.13,West,261,6.0,11.0,83,0.00,,,0.00,Wunderground v.1.15,2013-01-14 00:39:00,
2013-01-13 18:45:00,4.3,0.3,30.13,West,260,5.0,7.0,83,0.00,,,0.00,Wunderground v.1.15,2013-01-14 00:45:00,
2013-01-13 18:50:00,4.2,0.2,30.13,WSW,249,4.0,4.0,83,0.00,,,0.00,Wunderground v.1.15,2013-01-14 00:50:00,
2013-01-13 18:55:00,4.1,0.3,30.13,West,271,3.0,6.0,84,0.00,,,0.00,Wunderground v.1.15,2013-01-14 00:55:00,
2013-01-13 19:00:00,4.0,0.2,30.13,West,273,3.0,3.0,84,0.00,,,0.00,Wunderground v.1.15,2013-01-14 01:00:00,
2013-01-13 19:05:00,4.0,0.2,30.13,WSW,239,3.0,3.0,84,0.00,,,0.00,Wunderground v.1.15,2013-01-14 01:05:00,
2013-01-13 19:11:00,3.9,0.1,30.13,West,259,3.0,3.0,84,0.00,,,0.00,Wunderground v.1.15,2013-01-14 01:11:00,
2013-01-13 19:16:00,3.9,0.1,30.13,WSW,242,3.0,4.0,84,0.00,,,0.00,Wunderground v.1.15,2013-01-14 01:16:00,
2013-01-13 19:21:00,3.9,0.1,30.13,West,263,3.0,3.0,84,0.00,,,0.00,Wunderground v.1.15,2013-01-14 01:21:00,
2013-01-13 19:26:00,3.8,0.0,30.14,WNW,283,3.0,4.0,84,0.00,,,0.00,Wunderground v.1.15,2013-01-14 01:26:00,
2013-01-13 19:31:00,3.8,0.0,30.14,West,267,3.0,5.0,84,0.00,,,0.00,Wunderground v.1.15,2013-01-14 01:31:00,
2013-01-13 19:37:00,3.8,0.0,30.14,West,274,3.0,5.0,84,0.00,,,0.00,Wunderground v.1.15,2013-01-14 01:37:00,
2013-01-13 19:42:00,3.8,0.0,30.14,West,271,3.0,4.0,84,0.00,,,0.00,Wunderground v.1.15,2013-01-14 01:42:00,
2013-01-13 19:47:00,3.8,0.0,30.14,West,281,3.0,4.0,84,0.00,,,0.00,Wunderground v.1.15,2013-01-14 01:47:00,
2013-01-13 19:52:00,3.9,0.1,30.15,WSW,252,3.0,4.0,84,0.00,,,0.00,Wunderground v.1.15,2013-01-14 01:52:00,
2013-01-13 19:57:00,3.9,0.1,30.15,West,269,3.0,4.0,84,0.00,,,0.00,Wunderground v.1.15,2013-01-14 01:57:00,
2013-01-13 20:03:00,3.9,0.1,30.15,WSW,250,3.0,5.0,84,0.00,,,0.00,Wunderground v.1.15,2013-01-14 02:03:00,
2013-01-13 20:08:00,4.0,0.2,30.15,West,259,3.0,5.0,84,0.00,,,0.00,Wunderground v.1.15,2013-01-14 02:08:00,
2013-01-13 20:13:00,4.0,0.2,30.15,West,263,3.0,4.0,84,0.00,,,0.00,Wunderground v.1.15,2013-01-14 02:13:00,
2013-01-13 20:18:00,4.0,0.2,30.15,West,280,2.0,4.0,84,0.00,,,0.00,Wunderground v.1.15,2013-01-14 02:18:00,
2013-01-13 20:23:00,4.0,0.2,30.15,WNW,286,2.0,4.0,84,0.00,,,0.00,Wunderground v.1.15,2013-01-14 02:23:00,
2013-01-13 20:29:00,4.0,0.2,30.15,West,274,2.0,4.0,84,0.00,,,0.00,Wunderground v.1.15,2013-01-14 02:29:00,
2013-01-13 20:34:00,4.2,0.4,30.15,West,276,3.0,5.0,84,0.00,,,0.00,Wunderground v.1.15,2013-01-14 02:34:00,
2013-01-13 20:39:00,4.2,0.4,30.15,WSW,252,3.0,3.0,84,0.00,,,0.00,Wunderground v.1.15,2013-01-14 02:39:00,
2013-01-13 20:44:00,4.2,0.4,30.15,WSW,239,2.0,3.0,84,0.00,,,0.00,Wunderground v.1.15,2013-01-14 02:44:00,
2013-01-13 20:49:00,4.3,0.5,30.15,WSW,255,3.0,5.0,84,0.00,,,0.00,Wunderground v.1.15,2013-01-14 02:49:00,
2013-01-13 20:54:00,4.3,0.5,30.15,West,269,3.0,5.0,84,0.00,,,0.00,Wunderground v.1.15,2013-01-14 02:54:00,
2013-01-13 20:59:00,4.3,0.5,30.15,West,273,2.0,3.0,84,0.00,,,0.00,Wunderground v.1.15,2013-01-14 02:59:00,
2013-01-13 21:04:00,4.4,0.6,30.15,WSW,257,2.0,3.0,84,0.00,,,0.00,Wunderground v.1.15,2013-01-14 03:04:00,
2013-01-13 21:10:00,4.3,0.5,30.15,WSW,250,2.0,2.0,84,0.00,,,0.00,Wunderground v.1.15,2013-01-14 03:10:00,
2013-01-13 21:15:00,4.3,0.5,30.16,WSW,251,1.0,2.0,84,0.00,,,0.00,Wunderground v.1.15,2013-01-14 03:15:00,
2013-01-13 21:20:00,4.2,0.4,30.16,WSW,253,1.0,1.0,84,0.00,,,0.00,Wunderground v.1.15,2013-01-14 03:20:00,
2013-01-13 21:25:00,4.2,0.4,30.16,WSW,246,1.0,1.0,84,0.00,,,0.00,Wunderground v.1.15,2013-01-14 03:25:00,
2013-01-13 21:30:00,4.1,0.3,30.16,West,260,1.0,1.0,84,0.00,,,0.00,Wunderground v.1.15,2013-01-14 03:30:00,
2013-01-13 21:36:00,4.0,0.2,30.16,WSW,252,1.0,1.0,84,0.00,,,0.00,Wunderground v.1.15,2013-01-14 03:36:00,
2013-01-13 21:41:00,4.0,0.2,30.16,West,280,1.0,2.0,84,0.00,,,0.00,Wunderground v.1.15,2013-01-14 03:41:00,
2013-01-13 21:46:00,4.0,0.5,30.16,West,259,1.0,2.0,85,0.00,,,0.00,Wunderground v.1.15,2013-01-14 03:46:00,
2013-01-13 21:51:00,4.1,0.6,30.16,West,278,1.0,1.0,85,0.00,,,0.00,Wunderground v.1.15,2013-01-14 03:51:00,
2013-01-13 21:56:00,4.2,0.4,30.17,WSW,257,1.0,1.0,84,0.00,,,0.00,Wunderground v.1.15,2013-01-14 03:56:00,
2013-01-13 22:02:00,4.2,0.4,30.17,West,269,1.0,3.0,84,0.00,,,0.00,Wunderground v.1.15,2013-01-14 04:02:00,
2013-01-13 22:07:00,4.2,0.4,30.17,WSW,248,1.0,3.0,84,0.00,,,0.00,Wunderground v.1.15,2013-01-14 04:07:00,
2013-01-13 22:12:00,4.2,0.4,30.17,WSW,252,1.0,1.0,84,0.00,,,0.00,Wunderground v.1.15,2013-01-14 04:12:00,
2013-01-13 22:17:00,4.2,0.7,30.17,WSW,256,1.0,2.0,85,0.00,,,0.00,Wunderground v.1.15,2013-01-14 04:17:00,
2013-01-13 22:22:00,4.3,0.8,30.17,West,267,1.0,2.0,85,0.00,,,0.00,Wunderground v.1.15,2013-01-14 04:22:00,
2013-01-13 22:28:00,4.4,0.9,30.17,WSW,246,1.0,2.0,85,0.00,,,0.00,Wunderground v.1.15,2013-01-14 04:28:00,
2013-01-13 22:33:00,4.4,0.9,30.17,WSW,249,1.0,2.0,85,0.00,,,0.00,Wunderground v.1.15,2013-01-14 04:33:00,
2013-01-13 22:38:00,4.6,0.8,30.18,WSW,253,1.0,2.0,84,0.00,,,0.00,Wunderground v.1.15,2013-01-14 04:38:00,
2013-01-13 22:43:00,4.6,0.8,30.18,WSW,256,1.0,1.0,84,0.00,,,0.00,Wunderground v.1.15,2013-01-14 04:43:00,
2013-01-13 22:48:00,4.6,0.8,30.18,West,259,1.0,1.0,84,0.00,,,0.00,Wunderground v.1.15,2013-01-14 04:48:00,
2013-01-13 22:54:00,4.6,0.8,30.18,West,259,1.0,1.0,84,0.00,,,0.00,Wunderground v.1.15,2013-01-14 04:54:00,
2013-01-13 22:59:00,4.7,0.9,30.18,WSW,257,1.0,2.0,84,0.00,,,0.00,Wunderground v.1.15,2013-01-14 04:59:00,
2013-01-13 23:01:00,4.7,0.9,30.18,WSW,255,1.0,1.0,84,0.00,,,0.00,Wunderground v.1.15,2013-01-14 05:01:00,
2013-01-13 23:03:00,4.6,0.8,30.18,WSW,257,1.0,1.0,84,0.00,,,0.00,Wunderground v.1.15,2013-01-14 05:03:00,
2013-01-13 23:05:00,4.7,0.9,30.18,WSW,250,1.0,1.0,84,0.00,,,0.00,Wunderground v.1.15,2013-01-14 05:05:00,
2013-01-13 23:06:00,4.6,0.8,30.18,WSW,245,1.0,1.0,84,0.00,,,0.00,Wunderground v.1.15,2013-01-14 05:06:00,
2013-01-13 23:12:00,4.6,0.8,30.18,WSW,253,1.0,1.0,84,0.00,,,0.00,Wunderground v.1.15,2013-01-14 05:12:00,
2013-01-13 23:17:00,4.5,1.0,30.18,WSW,257,1.0,1.0,85,0.00,,,0.00,Wunderground v.1.15,2013-01-14 05:17:00,
2013-01-13 23:22:00,4.4,0.9,30.18,WSW,255,0.0,1.0,85,0.00,,,0.00,Wunderground v.1.15,2013-01-14 05:22:00,
2013-01-13 23:27:00,4.3,0.8,30.18,WSW,255,0.0,1.0,85,0.00,,,0.00,Wunderground v.1.15,2013-01-14 05:27:00,
2013-01-13 23:32:00,4.2,0.9,30.18,WSW,254,0.0,1.0,86,0.00,,,0.00,Wunderground v.1.15,2013-01-14 05:32:00,
2013-01-13 23:38:00,4.1,0.8,30.18,WSW,253,0.0,1.0,86,0.00,,,0.00,Wunderground v.1.15,2013-01-14 05:38:00,
2013-01-13 23:43:00,4.2,0.9,30.18,West,263,1.0,1.0,86,0.00,,,0.00,Wunderground v.1.15,2013-01-14 05:43:00,
2013-01-13 23:48:00,4.1,0.8,30.19,WSW,245,1.0,1.0,86,0.00,,,0.00,Wunderground v.1.15,2013-01-14 05:48:00,
2013-01-13 23:53:00,4.2,0.9,30.19,WSW,257,0.0,1.0,86,0.00,,,0.00,Wunderground v.1.15,2013-01-14 05:53:00,
2013-01-13 23:58:00,4.2,0.9,30.19,WSW,250,1.0,2.0,86,0.00,,,0.00,Wunderground v.1.15,2013-01-14 05:58:00,